Regional Weather Roundup
Issued by NWS

Home | Current Version | Previous Version | Graphics & Text | Print | Product List | Glossary On
Versions: 1 2 3 4 5 6 7 8 9 10 11 12 13 14 15 16 17 18 19 20 21 22 23 24 25 26 27 28 29 30 31 32 33 34 35 36 37 38 39 40 41 42 43 44 45 46 47 48 49 50
000
ASUS45 KBOU 252207
RWRCO

WEATHER ROUNDUP FOR COLORADO
NATIONAL WEATHER SERVICE DENVER/BOULDER CO
400 PM MDT TUE APR 25 2017

NOTE: "FAIR" INDICATES FEW OR NO CLOUDS BELOW 12000 FEET WITH NO
SIGNIFICANT WEATHER AND/OR OBSTRUCTIONS TO VISIBILITY.

COZ001>005-013-030-031-252300-
...NORTHWEST COLORADO...

CITY           SKY/WX    TMP DP  RH WIND       PRES   REMARKS
CRAIG          LGT RAIN  40  33  76 N15       29.72R
HAYDEN         PTSUNNY   41  28  60 N6        29.72S
MEEKER         LGT RAIN  39  35  86 S9        29.74F
MOUNT WERNER   NOT AVBL
STEAMBOAT SPGS FAIR      41  30  66 SW8       29.72S
WALDEN           N/A     34  28  80 N22G32    29.73R WCI  22
$$

COZ006>008-011-252300-
...WEST CENTRAL VALLEYS...

CITY           SKY/WX    TMP DP  RH WIND       PRES   REMARKS
GRAND JUNCTION PTSUNNY   51  32  48 NE10      29.71R
MONTROSE       CLOUDY    46  29  51 SW10      29.72S
EAGLE          PTSUNNY   41  28  60 W9        29.74R
RIFLE          FAIR      48  31  51 VRB3      29.72F
DELTA          FAIR      59  24  26 W10G23    29.68R
NUCLA          LGT RAIN  43  32  65 W12G21    29.76S
$$

COZ017>023-064>068-252300-
...SOUTHWEST COLORADO...

CITY           SKY/WX    TMP DP  RH WIND       PRES   REMARKS
DURANGO        PTSUNNY   48  23  37 W28G40    29.65S
CORTEZ         CLOUDY    48  33  56 N12G21    29.70S
PAGOSA SPRINGS PTSUNNY   48  23  37 W10G18    29.64F
TELLURIDE      FLURRIES  32  27  80 W5        29.76S WCI  28
WOLF CREEK PAS HVY SNOW  23  23 100 NW8G16    29.77R VSB<1/4 WCI  14
$$

COZ009-010-012-014-032>034-037-058>063-252300-
...CENTRAL COLORADO...

CITY           SKY/WX    TMP DP  RH WIND       PRES   REMARKS
ASPEN          LGT SNOW  34  29  82 CALM      29.71R
BUENA VISTA    PTSUNNY   49  17  28 SW12G25   29.60F
COPPER MTN     FAIR      32  16  51 MISG      29.73S
BERTHOUD PASS  PTSUNNY   18   7  62 NW12G26   29.74R WCI   5
COTTONWOOD PAS PTSUNNY   41  19  42 W13G21    29.66F
GUNNISON       FAIR      43  26  51 SW14      29.67F
KREMMLING      FAIR      46  27  46 NW10G18   29.70S
LEADVILLE      CLOUDY    32  21  64 W7        29.68S WCI  26
MONARCH PASS   CLOUDY    27  23  86 W18G28    29.81S WCI  13
SALIDA         CLOUDY    49  23  35 W6G22     29.68R
SUNLIGHT       PTSUNNY   23  21  93 MISG      29.80S
WILKERSON PASS SNOW      28  25  86 N6        29.73S VSB 1/2 WCI  22
$$

COZ069>075-252300-
...SAN LUIS VALLEY/SANGRE DE CRISTO MOUNTAINS...

CITY           SKY/WX    TMP DP  RH WIND       PRES   REMARKS
ALAMOSA        LGT RAIN  39  38  96 E9        29.61F
LA VETA PASS   TSTM      32  32 100 W3G18     29.77R VSB 1/2
SAGUACHE       LGT RAIN  43  32  65 NW3       29.62F
$$

COZ035-036-038>040-252300-
...NORTHERN COLORADO FRONT RANGE...

CITY           SKY/WX    TMP DP  RH WIND       PRES   REMARKS
DENVER INTL AP LGT RAIN  42  35  76 E14       29.59F
DMNS CITY PARK   N/A     47  35  62 NE15G23   29.60R
AURORA         PTSUNNY   44  34  69 NE16G28   29.61R
FRONT RANGE AP PTSUNNY   46  36  66 NW30G37   29.62R
ERIE MUNI ARPT FAIR      53  32  45 E15G22    29.59R
BOULDER MUN AP PTSUNNY   54  30  40 E5        29.58S
CENTENNIAL     LGT RAIN  42  37  82 NE15      29.62R
BROOMFIELD     PTSUNNY   50  32  50 E12       29.60S
FORT COLLINS   FAIR      58  29  33 CALM      29.58F
LONGMONT       FAIR      59  31  34 E12       29.59F
$$

COZ041-046-047-076>085-087-088-252300-
...PIKES PEAK/PALMER DIVIDE AND SOUTHERN FOOTHILLS...

CITY           SKY/WX    TMP DP  RH WIND       PRES   REMARKS
COLO. SPRINGS  LGT RAIN  42  35  76 NW3       29.64R
A. F. ACADEMY  LGT RAIN  40  36  86 S6        29.62S
SCHRIEVER AFB  PTSUNNY   42  37  82 NE10      29.63
ELLICOTT       NOT AVBL
FALCON         LGT RAIN  39  35  88 E10       29.64S
FORT CARSON    RAIN      39  37  93 NW13      29.62R
LIMON          LGT RAIN  42  38  85 CALM      29.62R
MONUMENT HILL  FAIR      39  32  75 SE14      29.63S
TRINIDAD       LGT RAIN  45  41  86 NE10      29.59F
$$

COZ042>045-048>051-090-091-252300-
...NORTHEAST COLORADO...

CITY           SKY/WX    TMP DP  RH WIND       PRES   REMARKS
GREELEY ARPT   FAIR      57  26  30 VRB3      29.58F
AKRON          FAIR      59  28  30 N14G23    29.55S
BURLINGTON     NOT AVBL
WRAY           NOT AVBL
STERLING       PTSUNNY   59  45  58 N33G45    29.54R
HOLYOKE        FAIR      59  43  55 NE20      29.58S
FORT MORGAN    PTSUNNY   59  26  27 NW15G26   29.56S
$$

COZ086-089-092>099-252300-
...SOUTHEAST COLORADO...

CITY           SKY/WX    TMP DP  RH WIND       PRES   REMARKS
PUEBLO         LGT RAIN  51  44  77 SE9       29.57R
LA JUNTA       CLOUDY    57  39  51 SE3       29.56R
LAMAR          CLOUDY    60  40  47 E8        29.51F
SPRINGFIELD      N/A     60  41  49 E16       29.51F
$$



USA.gov is the U.S. government's official web portal to all federal, state and local government web resources and services.